Home   Weather   Zerbst/Anhalt   Past weeks

Flag for Germany Past Weather in Zerbst/Anhalt, Saxony-Anhalt, Germany — Yesterday and Last 2 Weeks

46 °F

Light rain. Broken clouds.

Feels Like: 42 °F
Forecast: 40 / 48 °F
Wind: 9 mph from Southwest

Location: Leipzig-Schkeuditz

Current Time: Oct 21, 2016 at 1:17:53 PM

Latest Report: Oct 21, 2016 at 12:50 PM

Visibility: N/A

Pressure: 29.89 "Hg

Humidity: 87%

Dew Point: 43 °F

Location of Zerbst/AnhaltLocation

Past Weather in Zerbst/Anhalt — Graph


Zerbst/Anhalt Temperature Yesterday

Maximum temperature yesterday: 52 °F (at 12:20 PM)
Minimum temperature yesterday: 39 °F (at 7:50 AM)
Average temperature yesterday: 46 °F

High & Low Weather Summary for the Past Weeks

High64 °F (Oct 16, 2:20 PM)100% (Oct 6, 12:20 PM)30.27 "Hg (Oct 6, 12:20 PM)
Low39 °F (Oct 20, 7:50 AM)52% (Oct 16, 4:20 PM)29.77 "Hg (Oct 15, 1:50 AM)
Average48 °F89%30.08 "Hg
* Reported Oct 6 12:20 PM — Oct 21 12:20 PM, Zerbst/Anhalt, Weather by CustomWeather, © 2016

Note: Actual official high and low records may vary slightly from our data, if they occured in-between our weather recording intervals... More about our weather records


Zerbst/Anhalt Weather History for the Previous 24 Hours

Scroll right to see more
Time TempWeatherWind HumidityBarometerVisibility
12:20 PM
Fri, Oct 21
46 °FLight rain. Broken clouds.10 mph93%29.89 "HgN/A
11:50 AM45 °FLight rain. Broken clouds.9 mph87%29.89 "HgN/A
11:20 AM45 °FLight rain. Partly sunny.10 mph93%29.89 "HgN/A
10:50 AM45 °FLight rain. Partly sunny.10 mph93%29.89 "HgN/A
10:20 AM45 °FDrizzle. Partly sunny.8 mph93%29.89 "Hg5 mi
9:50 AM45 °FDrizzle. Fog.9 mph93%29.89 "Hg3 mi
9:20 AM43 °FDrizzle. Broken clouds.8 mph100%29.89 "Hg4 mi
8:50 AM43 °FDrizzle. Fog.8 mph100%29.89 "Hg3 mi
8:20 AM43 °FDrizzle. Fog.7 mph93%29.86 "Hg3 mi
7:50 AM43 °FDrizzle. Broken clouds.7 mph93%29.86 "Hg4 mi
7:20 AM43 °FPassing clouds.7 mph100%29.86 "Hg4 mi
6:50 AM43 °FLight rain. Passing clouds.7 mph100%29.86 "Hg4 mi
6:20 AM43 °FLight rain. Passing clouds.7 mph93%29.86 "Hg4 mi
5:50 AM43 °FLight rain. Partly cloudy.7 mph93%29.86 "Hg5 mi
5:20 AM43 °FPartly cloudy.7 mph93%29.86 "HgN/A
4:50 AM43 °FPartly cloudy.7 mph93%29.86 "Hg6 mi
4:20 AM43 °FPartly cloudy.6 mph93%29.86 "HgN/A
3:50 AM43 °FLight rain. Partly cloudy.6 mph100%29.86 "Hg4 mi
3:20 AM43 °FLight rain. Passing clouds.7 mph100%29.86 "Hg4 mi
2:50 AM43 °FPassing clouds.7 mph93%29.89 "HgN/A
2:20 AM43 °FOvercast.6 mph93%29.89 "HgN/A
1:50 AM43 °FOvercast.5 mph100%29.89 "HgN/A
1:20 AM43 °FOvercast.5 mph100%29.89 "HgN/A
12:50 AM43 °FOvercast.5 mph93%29.89 "HgN/A
12:20 AM43 °FOvercast.3 mph93%29.89 "HgN/A
11:50 PM
Thu, Oct 20
43 °FOvercast.3 mph93%29.89 "HgN/A
11:20 PM43 °FOvercast.3 mph93%29.89 "HgN/A
10:50 PM43 °FLight rain. Passing clouds.8 mph93%29.89 "HgN/A
10:20 PM45 °FPassing clouds.6 mph93%29.89 "HgN/A
9:50 PM43 °FLight rain. Partly cloudy.5 mph100%29.89 "HgN/A
9:20 PM43 °FLight rain. Passing clouds.5 mph100%29.89 "HgN/A
8:50 PM45 °FLight rain. Passing clouds.3 mph93%29.89 "HgN/A
8:20 PM45 °FLight rain. Passing clouds.5 mph93%29.89 "HgN/A
7:50 PM45 °FLight rain. Passing clouds.6 mph93%29.89 "HgN/A
7:20 PM45 °FLight rain. Passing clouds.7 mph93%29.92 "HgN/A
6:50 PM45 °FLight rain. Passing clouds.8 mph93%29.92 "HgN/A
6:20 PM46 °FLight rain. Mostly cloudy.5 mph87%29.89 "HgN/A
5:50 PM46 °FLight rain. Partly sunny.5 mph87%29.89 "HgN/A
5:20 PM48 °FSprinkles. Broken clouds.7 mph82%29.89 "HgN/A
4:50 PM46 °FSprinkles. Broken clouds.6 mph87%29.92 "HgN/A
4:20 PM48 °FBroken clouds.6 mph82%29.89 "HgN/A
3:50 PM50 °FBroken clouds.2 mph71%29.89 "HgN/A
3:20 PM50 °FSprinkles. Broken clouds.2 mph71%29.92 "HgN/A
2:50 PM50 °FBroken clouds.2 mph71%29.92 "HgN/A
2:20 PM48 °FBroken clouds.6 mph76%29.92 "HgN/A
1:50 PM50 °FBroken clouds.2 mph71%29.92 "HgN/A
1:20 PM48 °FBroken clouds.5 mph76%29.92 "HgN/A
Weather by CustomWeather, © 2016

See weather overviewHow to use our weather pages